Location: Pollard
(52.9833°N, 1.1167°E)
Time: 13:34:18
(UTC+00:00)

Daily predictions for brighter satellites

Satellite Brightness Start Highest point End
(mag) Time Altitude Azimuth Time Altitude Azimuth Time Altitude Azimuth
Cosmos 1354 Rocket 4.2 20:47:33 10° S 20:52:37 55° ESE 20:57:43 10° NNE
Cosmos 1674 Rocket 3.6 20:49:57 10° S 20:54:19 70° E 20:58:46 10° NNE
CZ-4 R/B 4.2 20:55:23 10° WSW 20:56:55 12° W 20:58:27 10° WNW
In-Cosmos 22 Rocket 4.3 20:51:11 10° S 20:56:59 81° E 21:02:44 10° NNE
Ariane Rocket 3.1 20:55:07 10° SSE 21:00:07 66° ENE 21:05:09 10° N
RESURS DK-1 4.0 20:59:14 10° NNW 21:02:37 25° NE 21:05:58 10° E
Terra 2.7 21:01:09 10° S 21:05:42 48° W 21:10:17 10° NNW
SAR-Lupe-2 3.6 21:05:04 10° SSE 21:08:40 80° ENE 21:12:17 10° NNW
Cosmos 2369 Rocket 2.2 21:03:25 10° SSW 21:09:08 85° ESE 21:14:51 10° NNE
Cosmos 1378 Rocket 4.0 21:05:23 10° SSW 21:09:39 65° WNW 21:13:55 10° N
Cosmos 1869 4.2 21:06:49 10° NNW 21:10:13 41° W 21:13:34 10° SSW
Cosmos 1777 Rocket 4.2 21:05:32 10° SSW 21:10:45 81° WNW 21:16:00 10° NNE
Cosmos 1025 Rocket 3.1 21:07:05 10° S 21:11:22 67° E 21:15:43 10° NNE
Okean-O 3.9 21:09:15 10° SSW 21:13:21 38° W 21:17:29 10° NNW
Meteor 2-12 Rocket 4.5 21:09:04 10° S 21:15:13 80° E 21:21:22 10° NNE
USA 245 3.8 21:11:28 10° S 21:15:19 51° WSW 21:18:28 10° NNW
Lacrosse 5 rocket 2.3 21:14:12 10° WNW 21:17:58 45° N 21:21:46 10° ENE
Cosmos 2297 Rocket 3.4 21:12:53 10° NNW 21:18:02 34° NE 21:23:09 10° ESE
Okean O Rocket 3.5 21:15:00 10° SSW 21:18:45 28° W 21:22:33 10° NW
Cosmos 1812 2.5 21:29:00 10° NNW 21:32:09 63° W 21:35:16 10° S
Cosmos 2263 4.3 21:27:03 10° SSW 21:32:43 87° WNW 21:38:24 10° NNE
Cosmos 1867 4.2 21:32:20 10° S 21:37:16 36° ESE 21:42:13 10° NE
ATLAS 5 CENTAUR R/B 4.1 21:35:05 10° NW 21:37:38 18° N 21:40:29 10° NE
PSLV R/B 3.3 21:34:54 12° S 21:37:44 76° WSW 21:40:52 10° NNW
SPOT 3 Rocket 4.0 21:32:44 10° S 21:37:52 61° WSW 21:43:03 10° NNW
DNEPR-1 R/B 3.6 21:35:51 10° NW 21:40:05 71° SW 21:43:42 14° SSE
Cosmos 1898 Rocket 4.0 21:38:27 10° S 21:43:19 42° ESE 21:48:16 10° NE
Cosmos 1538 Rocket 4.4 21:41:36 10° NNW 21:46:55 63° WSW 21:51:45 12° S
Helios 1A 4.4 21:45:57 10° N 21:49:35 36° WNW 21:53:12 10° SW
Cosmos 2227 Rocket 3.6 21:45:48 10° NNW 21:50:50 31° NE 21:55:50 10° ESE
Gbstr 26 Del rocket 3.7 21:52:05 10° W 21:57:03 63° SSW 22:03:11 10° ESE
USA 81 4.2 21:53:41 13° S 21:58:21 63° E 22:03:34 10° NNE
Cosmos 2098 Rocket 2.5 21:56:29 10° N 21:59:41 69° E 22:02:14 18° SSE
Cosmos 990 Rocket 4.4 21:55:11 10° SW 22:00:20 67° WNW 22:05:34 10° NNE
Cosmos 1515 3.9 21:59:06 10° NNW 22:01:32 35° W 22:03:25 14° SSW
ATLAS 2AS CENTAUR R/B 3.8 21:55:39 10° NW 22:02:08 42° NNE 22:08:29 10° E
BlueWalker 3 1.9 21:58:43 10° W 22:02:21 59° SSW 22:05:04 16° SE
Cosmos 2228 2.9 22:00:51 10° N 22:05:06 79° ENE 22:08:13 18° SSE
ALOS 2 4.1 22:05:31 11° ESE 22:08:53 27° ENE 22:12:34 10° N
Cosmos 1975 Rocket 3.0 22:08:20 12° S 22:12:16 89° ESE 22:16:37 10° NNE
Cosmos 1627 Rocket 4.5 22:08:02 10° S 22:14:11 88° WNW 22:20:20 10° N
CZ-4C R/B 2.0 22:12:19 10° SW 22:16:52 85° NW 22:22:47 10° NE
Cosmos 372 Rocket 3.9 22:12:34 10° SSW 22:17:40 82° ESE 22:22:46 10° NNE
Cosmos 1455 Rocket 4.2 22:13:56 10° NNW 22:17:54 37° W 22:21:50 10° SSW
CZ-4C R/B 4.1 22:15:25 10° NNE 22:18:44 32° E 22:20:28 21° SE
Aureole 1 Rocket 4.3 22:12:40 10° SSW 22:19:26 89° ESE 22:27:05 10° NNE
USA 215 3.5 22:16:21 10° E 22:22:53 76° NNE 22:29:26 10° WNW
ISS -2.7 22:20:33 10° W 22:23:30 29° SSW 22:24:30 24° S
MetOp-A 3.8 22:21:31 20° SE 22:23:52 48° ENE 22:27:33 10° N
COBE Rocket 4.3 22:20:58 10° N 22:25:33 58° WNW 22:30:05 10° SSW
Meteor 2-20 4.5 22:20:03 10° NNW 22:26:15 84° W 22:31:02 17° S
Cosmos 44 3.6 22:22:44 10° WSW 22:27:02 61° NW 22:31:30 10° NE
Cosmos 1656 3.9 22:26:02 16° S 22:30:21 50° ESE 22:35:40 10° NE
Cosmos 2112 Rocket 4.0 22:26:53 10° NNW 22:32:12 87° WSW 22:35:51 21° SSE
Cosmos 2263 Rocket 3.5 22:31:26 10° NNW 22:36:35 34° NE 22:41:39 10° ESE
DELTA 2 DEB (DPAF) 3.7 22:33:45 10° NNE 22:37:41 81° ESE 22:40:20 20° SSW
Cosmos 1937 Rocket 3.4 22:34:44 12° SSW 22:39:34 84° ESE 22:44:44 10° NNE
RESURS DK-1 2.6 22:36:27 10° NW 22:40:22 54° WSW 22:42:29 25° S
Cosmos 1400 Rocket 2.7 22:37:38 10° NNW 22:41:28 75° W 22:43:33 25° S
Cosmos 2026 Rocket 4.5 22:35:58 10° SSW 22:41:56 57° WNW 22:47:56 10° N
Cosmos 1680 Rocket 3.7 22:37:05 10° NNW 22:42:18 64° WSW 22:45:47 21° S
Cosmos 1782 2.9 22:38:51 10° N 22:42:29 55° ENE 22:44:20 26° SE
Cosmos 2266 Rocket 4.4 22:42:53 20° SSE 22:47:15 55° E 22:53:29 10° NNE
CZ-2C R/B 3.8 22:46:29 10° NNE 22:51:13 66° ESE 22:54:09 23° S
SL-08 ROCKET BODY 4.4 22:47:35 19° S 22:51:53 75° E 22:57:46 10° NNE
Cosmos 858 Rocket 4.4 22:49:22 15° SSW 22:53:40 82° ESE 22:58:53 10° NNE
Cosmos 2369 Rocket 4.4 22:49:00 10° W 22:53:50 27° NW 22:58:39 10° NNE
ARIANE 5 R/B 2.6 22:51:38 24° S 22:54:17 80° WSW 22:58:44 10° NNW
Cosmos 2058 3.0 22:53:29 27° SSE 22:55:22 55° E 22:59:15 10° NNE
Cosmos 1862 4.3 22:54:19 23° SE 22:55:37 29° E 22:58:50 10° NNE
Lacrosse 5 rocket 1.2 22:51:44 10° WNW 22:55:40 80° NNE 22:59:03 14° ESE
Cosmos 1553 Rocket 4.3 22:49:49 10° NNW 22:56:00 62° W 23:00:45 18° S
Cosmos 2315 Rocket 4.3 22:53:03 10° N 22:59:25 63° ENE 23:03:49 21° SSE
Cosmos 2297 Rocket 2.4 22:56:50 10° NW 23:02:26 63° WSW 23:05:55 23° S
Cosmos 2219 4.2 22:59:39 10° NNW 23:05:03 41° NE 23:10:23 10° ESE
Cosmos 1536 Rocket 3.5 23:03:26 24° S 23:06:02 86° E 23:10:29 10° NNE
Spot 4 3.8 23:06:04 25° S 23:08:55 80° WSW 23:13:45 10° NNW
Cosmos 1441 Rocket 4.5 23:09:15 20° ESE 23:10:11 23° E 23:12:57 10° NE
Cosmos 494 Rocket 4.2 23:05:10 10° NNW 23:10:20 61° WSW 23:13:19 25° S
Cosmos 1606 Rocket 3.5 23:06:51 10° N 23:11:14 87° E 23:13:33 28° SSE
Cosmos 1980 Rocket 3.6 23:12:31 17° SE 23:14:46 22° ESE 23:19:00 10° NE
S3M 4.0 23:11:15 10° NNW 23:17:36 81° W 23:21:42 23° S
Cosmos 1697 Rocket 3.1 23:15:36 24° S 23:18:37 46° ESE 23:24:01 10° NE
Cosmos 1867 4.1 23:15:16 10° WSW 23:20:39 60° NW 23:26:06 10° NE
ATLAS 5 CENTAUR R/B 3.5 23:18:06 10° NW 23:21:32 28° NNE 23:25:36 10° E
SOZ 4.1 23:19:29 10° W 23:26:07 - ESE 23:21:30 60° SSW
CZ-2C R/B 4.4 23:18:02 10° ESE 23:22:39 28° ENE 23:27:18 10° N
Cosmos 1048 Rocket 4.0 23:17:36 10° NNW 23:23:00 79° WSW 23:26:09 25° SSE
GEOS 3 Rocket 4.4 23:19:05 10° ENE 23:23:52 34° ESE 23:26:02 25° SSE
Cosmos 2360 4.2 23:20:30 17° SSW 23:24:56 83° ESE 23:30:40 10° NNE
Cosmos 1356 Rocket 3.5 23:22:08 10° N 23:26:10 68° ENE 23:28:08 29° SSE
BREEZE-M DEB (TANK) 3.5 23:23:21 10° WSW 23:27:11 66° S 23:41:00 10° E
Cosmos 1726 Rocket 3.7 23:29:13 10° NNW 23:33:50 78° W 23:36:15 28° S
Cosmos 2227 Rocket 2.2 23:29:43 10° NW 23:35:24 72° WSW 23:38:48 25° SSE
USA 290 3.4 23:34:14 10° NNW 23:37:21 37° ENE 23:39:06 21° ESE
Cosmos 2058 Rocket 3.3 23:34:15 10° N 23:38:42 65° ENE 23:41:04 27° SSE
BlueWalker 3 3.6 23:36:57 10° W 23:38:56 18° SW 23:38:56 18° SW
Meteor 2-3 Rocket 4.0 23:38:19 25° SSE 23:41:41 58° E 23:47:19 10° NNE
Cosmos 1655 Rocket 4.1 23:38:28 24° S 23:42:34 77° E 23:48:57 10° NNE
PSLV R/B 3.7 23:39:21 10° NNE 23:44:03 79° ESE 23:46:32 28° S
ALOS 2 3.2 23:42:55 26° SSW 23:45:01 46° W 23:49:17 10° NNW
Cosmos 1602 3.4 23:53:20 37° SW 23:54:24 65° WNW 23:57:35 10° N
Cosmos 1315 Rocket 2.7 23:51:44 10° NNW 23:55:36 75° WSW 23:57:08 35° S
